Home > Weather > Leipzig > Past weeks

Flag for Germany Weather for the Past 2 Weeks in Leipzig, Saxony, Germany

Now
32 °F

Passing clouds.


Feels Like: 24 °F
Forecast: 32 / 43 °F
Wind: 9 mph from Southwest

Location: Leipzig-Schkeuditz

Current Time: Feb 12, 2016 at 7:20:49 AM

Latest Report: Feb 12, 2016 at 6:20 AM


Visibility: N/A

Pressure: 29.65 "Hg

Humidity: 93%

Dew point: 30 °F

Location of LeipzigLocation

Historic Weather in Leipzig — Graph

°F

Leipzig Temperature Yesterday

Maximum temperature yesterday: 45 °F (at 2:20 PM)
Minimum temperature yesterday: 32 °F (at 10:50 PM)
Average temperature yesterday: 38 °F

High & Low Weather Summary for the Past Weeks

 TemperatureHumidityPressure
High54 °F (Feb 1, 12:50 PM)100% (Feb 1, 2:50 AM)30.30 "Hg (Feb 1, 2:50 AM)
Low32 °F (Feb 11, 10:50 PM)53% (Feb 3, 3:50 PM)29.00 "Hg (Feb 9, 8:20 PM)
Average43 °F79%29.82 "Hg
* Reported Jan 28 6:20 AM — Feb 12 6:20 AM, Leipzig, Weather by CustomWeather, © 2016

Note: Actual official high and low records may vary slightly from our data, if they occured in-between our weather recording intervals... More about our weather records

Advertising

Leipzig Weather History for the Previous 24 Hours

 ConditionsComfort  
Time TempWeatherWind HumidityBarometerVisibility
6:20 AM
Fri, Feb 12
32 °FPassing clouds.9 mph93%29.65 "HgN/A
5:50 AM34 °FClear.9 mph87%29.65 "Hg10 mi
5:20 AM34 °FClear.9 mph87%29.65 "Hg10 mi
4:50 AM34 °FClear.10 mph93%29.65 "Hg10 mi
4:20 AM34 °FClear.9 mph93%29.65 "Hg10 mi
3:50 AM32 °FPassing clouds.12 mph93%29.65 "HgN/A
3:20 AM32 °FClear.9 mph93%29.65 "Hg10 mi
2:50 AM34 °FClear.9 mph93%29.65 "Hg10 mi
2:20 AM36 °FClear.9 mph87%29.65 "Hg10 mi
1:50 AM32 °FClear.8 mph93%29.65 "Hg10 mi
1:20 AM32 °FClear.9 mph87%29.65 "Hg10 mi
12:50 AM32 °FClear.10 mph93%29.65 "Hg10 mi
12:20 AM34 °FClear.8 mph87%29.65 "Hg10 mi
11:50 PM
Thu, Feb 11
34 °FClear.8 mph87%29.65 "Hg10 mi
10:50 PM32 °FClear.10 mph93%29.65 "Hg10 mi
10:20 PM34 °FClear.8 mph87%29.65 "Hg10 mi
9:50 PM34 °FClear.9 mph87%29.65 "Hg10 mi
9:20 PM34 °FClear.12 mph87%29.65 "Hg10 mi
8:50 PM34 °FClear.10 mph87%29.65 "Hg10 mi
8:20 PM34 °FClear.12 mph87%29.65 "Hg10 mi
7:50 PM34 °FClear.12 mph87%29.65 "Hg10 mi
7:20 PM34 °FClear.9 mph87%29.65 "Hg10 mi
6:50 PM37 °FClear.9 mph81%29.65 "Hg10 mi
6:20 PM36 °FClear.10 mph87%29.65 "Hg10 mi
5:50 PM37 °FClear.10 mph81%29.62 "Hg10 mi
5:20 PM37 °FPassing clouds.10 mph75%29.62 "HgN/A
4:50 PM39 °FScattered showers. Scattered clouds.15 mph75%29.62 "HgN/A
4:20 PM41 °FScattered showers. Scattered clouds.15 mph70%29.62 "HgN/A
3:50 PM43 °FSprinkles. Scattered clouds.17 mph71%29.62 "HgN/A
3:20 PM43 °FScattered clouds.18 mph66%29.59 "HgN/A
2:50 PM45 °FScattered clouds.15 mph66%29.59 "HgN/A
2:20 PM45 °FScattered showers. Scattered clouds.17 mph66%29.59 "HgN/A
1:50 PM43 °FSprinkles. Scattered clouds.18 mph71%29.62 "HgN/A
1:20 PM43 °FScattered clouds.21 mph71%29.62 "HgN/A
12:50 PM43 °FScattered clouds.21 mph71%29.62 "HgN/A
12:20 PM41 °FScattered clouds.24 mph76%29.62 "HgN/A
11:50 AM41 °FBroken clouds.22 mph76%29.62 "HgN/A
11:20 AM41 °FSprinkles. Broken clouds.20 mph70%29.62 "HgN/A
10:50 AM41 °FBroken clouds.20 mph76%29.59 "HgN/A
10:20 AM41 °FPartly sunny.20 mph70%29.59 "HgN/A
9:50 AM39 °FSunny.17 mph81%29.59 "Hg10 mi
9:20 AM39 °FPartly sunny.18 mph81%29.59 "HgN/A
8:50 AM37 °FScattered showers. Partly sunny.16 mph87%29.56 "HgN/A
8:20 AM37 °FSunny.17 mph87%29.56 "Hg10 mi
7:50 AM36 °FSunny.15 mph87%29.56 "Hg10 mi
7:20 AM37 °FClear.16 mph87%29.56 "Hg10 mi
Weather by CustomWeather, © 2016

See weather overviewHow to use our weather pages